Погода в Сухэ-Баторе

Монголия     50°14′25″N   106°11′40″E
темп.,
°C
ветер,
м/с
пор.,
м/с
влажн.,
%
обл.,
%
осадки,
мм/ч
давл.,
гПа
погр.,
м
10 августа, ср
ср1023:00+17ссв1154100 0.0 100811
02:00+15св2253100 0.0 100713
05:00+15св1256100 0.0 100716
08:00+17с1254100 0.0 1007159
11:00+18с2251100 0.0 1007388
14:00+20всв114524 0.0 1006487
17:00+23вюв1140100 0.0 10041249
20:00+19всв2256100 0.0 100533
11 августа, чт
чт1123:00+17сз3457100 0.1 100782
02:00+14з1287100 1.3 100827
05:00+14з228912 0.0 100923
08:00+17з11792 0.0 1010207
11:00+22зюз1152100 0.0 10091174
14:00+25юз22419 0.0 10081863
17:00+24ююз1246100 0.0 1007466
20:00+16св3588100 1.2 1009144
12 августа, пт
пт1223:00+14с229191 0.5 101027
02:00+14с129059 0.6 101117
05:00+13св1289100 0.0 101113
08:00+16всв237310 0.0 1011283
11:00+21в225311 0.0 1010962
14:00+24юв1145100 0.0 10061552
17:00+24вюв1244100 0.0 10041452
20:00+20в2259100 0.0 100412
13 августа, сб
сб1323:00+18ю0071100 0.6 100511
02:00+16с3587100 1.0 1006128
05:00+15в1291100 0.4 100569
08:00+16с128688 0.4 1006148
11:00+22св235347 0.1 10051259
14:00+24ссв334169 0.3 10031760
17:00+21ссз6853100 0.0 1004713
20:00+16с4865100 0.1 1006293
14 августа, вс
вс1423:00+15с2571100 0.0 1007227
02:00+14ссз247535 0.0 1008176
05:00+11с22910 0.0 100923
08:00+14сз11720 0.0 1010270
11:00+20з12490 0.0 10091281
14:00+23зюз33400 0.0 10071773
17:00+24юз33390 0.0 10061828
20:00+19ю22560 0.0 100713